Beaufort MCAS, SC

4:38 AM EDT on May 27, 2017 (GMT -0400)
Beaufort Marine Corps Air Station

Weather History for KNBC - April, 2014

Change the Weather History Date:

Tuesday, April 15, 2014

  Actual Average Record
Temperature  
Mean Temperature 64 °F -  
Max Temperature 75 °F 76 °F 92 °F (1972)
Min Temperature 54 °F 57 °F 35 °F (1950)
Degree Days  
Heating Degree Days 1    
Growing Degree Days 14 (Base 50)    
Moisture  
Dew Point 64 °F    
Average Humidity 85    
Maximum Humidity 93    
Minimum Humidity 62    
Precipitation  
Precipitation 0.49 in - - ()
Sea Level Pressure  
Sea Level Pressure 29.79 in    
Wind  
Wind Speed 10 mph (West)    
Max Wind Speed 21 mph    
Max Gust Speed 30 mph    
Visibility 8 miles    
Events Rain    
Averages and records for this station are not official NWS values.
T = Trace of Precipitation, MM = Missing Value Source: NWS Daily Summary

Daily Weather History Graph

Daily Weather History Graph

Search for Another Location

Airport or City:

Trip Planner

Search our weather history database for the weather conditions in past years. The results will help you decide how hot, cold, wet, or windy it might be!

Date:

Astronomy

Apr. 15, 2014 Rise Set
Actual Time 6:53 AM EDT 7:52 PM EDT
Civil Twilight 6:28 AM EDT 8:17 PM EDT
Nautical Twilight 5:58 AM EDT 8:47 PM EDT
Astronomical Twilight 5:27 AM EDT 9:18 PM EDT
Moon 8:29 PM EDT (4/15) 7:01 AM EDT (4/15)
Length of Visible Light 13h 49m
Length of Day
12h 59m
Full, 100% of the Moon is Illuminated
Apr 15
Full
Apr 22
Last Quarter
Apr 29
New
May 6
First Quarter
May 14
Full

Hourly Weather History & Observations

Time (EDT) Temp. Dew Point Humidity Pressure Visibility Wind Dir Wind Speed Gust Speed Precip Events Conditions
12:06 AM 73.0 °F 69.1 °F 87% 29.85 in 10.0 mi SW 10.4 mph - N/A   Overcast
12:56 AM 73.0 °F 70.0 °F 90% 29.85 in 10.0 mi SW 9.2 mph - N/A   Overcast
1:24 AM 73.0 °F 69.1 °F 87% 29.84 in 10.0 mi SW 6.9 mph 17.3 mph N/A   Mostly Cloudy
1:31 AM 73.0 °F 69.1 °F 87% 29.84 in 10.0 mi SW 10.4 mph 18.4 mph N/A   Overcast
1:56 AM 73.9 °F 70.0 °F 87% 29.83 in 10.0 mi SW 10.4 mph 18.4 mph N/A   Mostly Cloudy
2:56 AM 73.0 °F 69.1 °F 87% 29.82 in 10.0 mi WSW 5.8 mph - N/A   Mostly Cloudy
3:08 AM 73.0 °F 69.1 °F 87% 29.81 in 10.0 mi WSW 6.9 mph - N/A   Mostly Cloudy
3:56 AM 72.0 °F 66.9 °F 84% 29.80 in 10.0 mi West 9.2 mph - N/A   Partly Cloudy
4:56 AM 71.1 °F 63.0 °F 75% 29.80 in 10.0 mi West 10.4 mph - N/A   Clear
5:56 AM 70.0 °F 62.1 °F 76% 29.81 in 10.0 mi West 6.9 mph - N/A   Partly Cloudy
6:56 AM 69.1 °F 62.1 °F 78% 29.81 in 10.0 mi Variable 3.5 mph - N/A   Overcast
7:56 AM 69.1 °F 62.1 °F 78% 29.82 in 10.0 mi West 3.5 mph - N/A   Overcast
8:56 AM 70.0 °F 63.0 °F 78% 29.82 in 10.0 mi SW 4.6 mph - N/A   Overcast
9:56 AM 66.9 °F 64.9 °F 93% 29.82 in 2.5 mi SW 8.1 mph - 0.05 in Rain Rain
10:05 AM 66.9 °F 64.0 °F 90% 29.82 in 6.0 mi SW 8.1 mph - 0.01 in Rain Light Rain
10:56 AM 68.0 °F 64.9 °F 90% 29.81 in 4.0 mi SW 10.4 mph - 0.06 in Rain Rain
11:14 AM 68.0 °F 66.0 °F 93% 29.80 in 4.0 mi SW 9.2 mph - 0.01 in Rain Light Rain
11:56 AM 69.1 °F 66.0 °F 90% 29.79 in 5.0 mi SW 11.5 mph 21.9 mph 0.04 in Rain Light Rain
12:03 PM 69.1 °F 66.0 °F 90% 29.78 in 6.0 mi SW 11.5 mph - 0.01 in Rain Light Rain
12:11 PM 69.1 °F 66.9 °F 93% 29.78 in 8.0 mi SW 13.8 mph 23.0 mph 0.01 in Rain Light Rain
12:56 PM 69.1 °F 66.0 °F 90% 29.79 in 4.0 mi SW 13.8 mph 21.9 mph 0.03 in Rain Rain
1:05 PM 69.1 °F 66.0 °F 90% 29.80 in 1.8 mi SW 15.0 mph 24.2 mph 0.03 in Rain Rain
1:08 PM 69.1 °F 66.0 °F 90% 29.80 in 1.0 mi WSW 16.1 mph 26.5 mph 0.04 in Rain Rain
1:38 PM 68.0 °F 66.0 °F 93% 29.79 in 2.5 mi SW 10.4 mph 20.7 mph 0.19 in Rain Rain
1:56 PM 69.1 °F 66.0 °F 90% 29.76 in 8.0 mi SW 9.2 mph 21.9 mph 0.20 in Rain Light Rain
2:56 PM 70.0 °F 66.9 °F 90% 29.73 in 10.0 mi SW 10.4 mph 17.3 mph 0.01 in   Mostly Cloudy
3:56 PM 72.0 °F 66.9 °F 84% 29.69 in 10.0 mi WSW 13.8 mph 25.3 mph N/A   Scattered Clouds
4:17 PM 71.1 °F 66.9 °F 87% 29.68 in 10.0 mi WSW 11.5 mph 20.7 mph N/A   Mostly Cloudy
4:56 PM 73.9 °F 68.0 °F 82% 29.67 in 10.0 mi WSW 15.0 mph 20.7 mph N/A   Mostly Cloudy
5:56 PM 72.0 °F 66.9 °F 84% 29.69 in 9.0 mi WSW 12.7 mph 18.4 mph N/A   Overcast
6:02 PM 71.1 °F 66.9 °F 87% 29.68 in 1.5 mi WSW 8.1 mph 17.3 mph 0.05 in Rain Rain
6:09 PM 70.0 °F 66.9 °F 90% 29.70 in 0.8 mi WNW 13.8 mph 18.4 mph 0.09 in Rain Rain
6:11 PM 70.0 °F 66.9 °F 90% 29.71 in 1.0 mi NW 19.6 mph 26.5 mph 0.09 in Rain Rain
6:14 PM 68.0 °F 64.9 °F 90% 29.71 in 1.8 mi NNW 20.7 mph 27.6 mph 0.10 in Rain Rain
6:18 PM 66.9 °F 64.0 °F 90% 29.72 in 3.0 mi NNW 19.6 mph 29.9 mph 0.10 in Rain Light Rain
6:27 PM 66.9 °F 63.0 °F 87% 29.72 in 10.0 mi NNW 15.0 mph 27.6 mph 0.10 in   Overcast
6:40 PM 66.0 °F 63.0 °F 90% 29.72 in 10.0 mi NW 10.4 mph - 0.10 in   Overcast
6:56 PM 66.0 °F 62.1 °F 87% 29.73 in 10.0 mi NW 11.5 mph - 0.10 in   Overcast
7:39 PM 64.9 °F 57.9 °F 78% 29.76 in 10.0 mi NW 18.4 mph 26.5 mph N/A   Overcast
7:56 PM 64.0 °F 57.0 °F 78% 29.78 in 10.0 mi NNW 17.3 mph 27.6 mph N/A   Overcast
8:56 PM 60.1 °F 52.0 °F 75% 29.84 in 10.0 mi NNW 15.0 mph 20.7 mph N/A   Scattered Clouds
9:56 PM 59.0 °F 46.9 °F 64% 29.90 in 10.0 mi NNW 11.5 mph 23.0 mph N/A   Overcast
10:56 PM 55.9 °F 43.0 °F 62% 29.93 in 10.0 mi North 15.0 mph 25.3 mph N/A   Clear
11:56 PM 54.0 °F 42.1 °F 64% 29.96 in 10.0 mi North 11.5 mph - N/A   Clear